Theta_e
311 311 312 312 311 317 319 319 318 317 317 312 314 316 316 318 318 319 318 320 320 322 323 321 321 321 327 335 338 338 339 339 341 341 341 350 351 350 351 351 352 350 347 341 338 338 337 337 338 337 329 327 331 329 327 325 324 326 331 335 336 337 339 340 340 339 339 337 337 336 335 335 333 333 331 323 315 315 317 321 322 321 320 314 312 312 309 309 309 310 310 312 311 310 310 309 309
312 311 311 311 313 320 321 317 316 316 314 312 315 316 316 318 317 318 318 318 318 320 320 319 321 321 327 337 343 343 344 345 348 350 349 350 351 351 351 351 351 349 347 342 339 339 337 337 338 334 327 330 332 331 331 328 326 324 324 328 330 333 336 338 339 338 338 337 337 336 335 334 333 332 332 327 318 315 315 319 324 322 316 317 317 312 309 309 310 312 312 313 312 311 310 309 309
311 312 313 313 315 320 320 316 314 313 312 311 314 317 317 317 317 317 318 318 318 319 318 319 324 329 335 341 345 344 346 350 349 350 350 350 352 351 351 351 350 349 347 343 339 339 337 337 337 331 327 333 333 332 332 331 329 325 322 322 323 327 332 336 338 338 338 337 336 335 335 333 333 332 331 327 320 316 315 320 323 317 313 319 318 312 311 310 311 314 315 316 314 312 312 311 310
311 313 317 318 317 318 318 316 315 313 311 312 313 316 317 317 317 317 318 318 319 319 319 322 328 340 343 343 347 345 347 350 349 349 350 351 352 351 351 350 349 348 347 344 341 340 338 337 334 327 329 334 333 333 333 332 331 326 322 321 321 324 329 334 336 337 338 338 337 336 334 331 331 330 329 326 321 317 316 320 321 314 313 317 317 315 313 313 316 317 317 318 315 314 314 313 312
312 314 316 320 320 317 319 317 316 314 312 313 313 316 317 317 317 317 318 318 320 319 320 325 332 343 346 347 348 346 349 350 349 349 350 351 352 351 350 349 349 348 347 345 343 341 339 337 330 326 332 334 333 333 332 332 331 326 322 321 321 323 326 331 334 337 337 336 336 334 332 332 333 331 327 324 320 318 317 320 321 316 315 317 318 320 317 316 320 320 320 318 316 315 315 314 314
315 316 315 318 320 318 317 315 314 314 315 316 314 316 317 317 317 318 319 320 320 319 323 330 337 344 346 349 349 349 350 349 349 349 350 351 351 350 350 349 349 347 346 345 344 341 340 337 326 327 334 334 334 333 333 332 331 327 323 321 321 323 326 330 334 336 336 335 333 332 334 337 339 337 333 327 320 318 317 320 323 319 317 319 320 322 320 318 320 320 320 318 316 315 315 315 314
317 318 316 317 318 317 317 314 314 315 317 317 316 317 317 317 318 319 321 322 321 322 328 333 338 342 345 349 349 349 349 349 350 348 350 351 350 350 349 349 348 348 346 345 345 342 340 334 325 330 335 334 335 333 333 332 331 328 323 322 322 324 327 330 334 335 335 334 333 334 337 339 341 340 338 333 322 318 318 320 325 321 319 321 321 323 323 319 320 321 320 318 317 315 315 315 313
317 319 318 317 317 316 316 315 315 316 317 317 317 317 316 317 319 320 322 324 323 323 327 325 328 337 345 349 348 350 349 349 349 348 350 350 350 350 349 349 348 347 345 345 344 342 339 330 326 333 334 334 335 333 334 332 331 327 323 322 323 325 327 330 333 334 333 334 335 336 338 339 340 339 338 336 327 319 319 322 324 322 321 323 323 324 326 322 320 321 321 319 318 315 316 315 314
316 318 317 317 318 315 314 314 315 317 316 317 317 317 317 318 319 320 322 326 328 325 324 320 322 334 345 349 349 350 349 350 349 349 350 350 350 350 350 349 348 346 345 346 343 340 336 328 327 333 334 334 334 334 334 332 330 327 324 321 322 326 327 328 330 332 333 335 336 337 339 339 339 338 338 336 327 320 321 324 323 322 324 326 326 328 328 322 320 323 322 321 320 318 318 318 316
316 316 317 316 316 314 312 313 315 316 316 316 316 317 318 318 319 321 323 327 329 325 323 321 324 336 345 350 350 350 350 350 349 350 350 350 351 350 350 349 348 346 345 345 342 339 334 326 329 333 333 334 334 334 334 332 330 328 326 322 320 324 326 326 329 333 335 337 338 337 339 339 338 338 335 331 324 320 321 325 325 323 327 330 330 330 326 320 321 323 323 323 323 321 321 321 320
317 316 317 315 314 312 311 313 315 316 316 316 316 318 317 318 319 323 325 329 330 324 322 323 326 336 345 350 350 349 350 350 349 350 350 350 350 349 349 349 348 346 345 345 340 338 333 326 329 332 332 334 334 334 334 332 330 329 327 325 321 320 321 323 328 333 336 336 337 337 338 338 336 332 329 326 323 320 319 322 325 325 329 332 331 331 326 319 321 322 323 325 324 322 322 323 323
317 316 315 314 313 313 313 314 314 316 316 316 317 317 317 318 319 323 326 330 332 322 321 328 335 338 341 348 350 349 350 350 350 349 350 350 349 349 349 349 348 346 344 343 340 337 332 327 328 332 333 332 334 334 334 333 331 330 329 329 326 322 320 320 324 330 334 334 335 336 335 334 331 326 325 325 324 321 319 319 321 325 330 332 332 330 324 319 322 322 323 325 324 323 322 324 324
317 317 315 314 315 315 314 314 315 315 316 316 317 317 317 318 319 323 326 331 334 327 326 333 341 342 342 349 349 348 350 350 349 349 350 350 349 349 349 348 347 345 343 342 340 337 333 330 329 335 335 332 333 333 333 333 332 332 331 332 330 326 323 321 322 325 330 331 332 332 330 329 328 327 326 326 324 320 319 319 321 324 329 332 332 329 323 320 323 323 323 324 324 323 322 324 324
315 316 315 314 315 315 314 314 315 314 315 316 317 317 317 318 317 321 325 329 335 338 338 337 341 343 346 349 347 348 350 350 349 349 350 349 349 349 348 348 347 345 343 341 340 336 334 333 333 336 336 335 335 334 334 333 333 333 333 334 331 327 326 325 325 325 328 329 329 329 328 329 331 331 330 327 324 322 324 326 327 327 327 328 331 329 323 323 324 323 323 322 324 323 323 324 324
315 316 315 315 315 314 314 314 315 314 315 317 317 317 317 318 317 320 323 327 336 343 343 342 343 344 344 345 346 348 349 350 349 348 349 349 349 347 347 347 346 344 342 341 340 336 336 336 336 336 336 337 337 335 335 333 333 334 333 334 330 326 327 328 330 331 331 330 330 329 330 332 332 332 331 330 328 327 330 331 332 332 328 325 328 328 323 324 325 323 323 323 325 325 324 324 324
315 315 315 314 313 313 314 315 314 314 315 317 317 317 317 317 318 319 321 330 339 340 342 344 345 346 344 344 345 348 349 350 349 348 349 348 348 347 346 347 346 344 342 342 341 339 339 340 339 338 337 337 337 336 335 334 333 333 334 334 327 323 325 328 332 333 332 331 331 331 332 332 333 333 332 332 331 331 332 332 332 333 330 326 326 326 324 325 326 325 324 324 326 327 327 327 326
314 315 315 314 313 313 314 315 315 314 315 317 318 317 317 316 318 317 319 333 337 334 341 345 346 347 347 346 347 348 349 349 349 349 349 347 348 347 346 346 346 345 344 344 343 340 340 340 340 339 338 338 338 336 336 335 334 334 334 334 326 321 322 325 329 331 331 331 330 331 332 333 333 333 333 333 333 332 332 332 331 332 332 327 324 324 325 326 327 326 326 326 327 328 329 330 329
314 315 314 314 314 314 315 315 315 315 315 317 317 317 316 316 318 317 317 327 330 332 341 344 346 347 347 347 347 348 349 349 348 348 348 347 347 347 347 346 345 345 344 343 343 341 340 340 339 339 339 339 338 337 337 336 335 335 335 333 328 324 322 322 326 328 329 329 330 331 332 332 333 334 334 334 334 333 333 332 330 330 331 328 325 323 324 326 327 326 326 326 327 328 329 331 331
314 315 314 314 315 316 316 315 316 315 316 317 317 317 316 316 318 317 317 320 322 327 336 341 344 347 347 347 347 348 348 348 347 347 347 347 346 346 346 346 345 344 343 342 343 342 340 339 338 339 339 338 338 338 339 337 335 335 334 334 331 326 323 323 326 327 328 330 331 333 333 333 334 334 333 334 334 334 333 328 323 323 324 326 328 325 322 324 328 327 326 326 327 328 329 331 332
315 316 315 315 316 315 316 315 316 316 316 317 317 317 316 317 317 317 317 319 321 322 328 335 342 347 347 347 347 348 348 345 345 346 347 347 346 346 345 344 343 342 342 343 342 340 340 340 339 339 339 339 338 338 339 338 336 335 335 334 330 325 326 327 328 329 331 331 331 333 333 333 335 334 333 334 333 332 329 323 318 317 318 321 324 325 322 321 326 328 328 327 328 330 331 331 332
315 316 314 316 317 314 315 315 316 316 316 317 316 316 317 317 316 317 317 318 320 321 325 331 341 347 347 347 346 347 346 344 344 344 345 346 345 345 344 344 342 340 342 342 340 340 340 340 340 340 340 339 339 338 338 338 337 337 336 334 329 328 331 332 332 333 333 331 331 332 332 333 336 335 333 332 329 328 327 323 320 317 316 316 319 326 326 323 325 328 329 329 330 331 332 332 332
316 316 314 316 317 314 316 316 316 315 316 316 317 316 316 317 316 317 317 317 318 320 324 332 343 346 346 346 346 346 345 344 344 343 345 344 345 343 338 339 339 338 341 339 339 340 339 340 341 341 340 339 339 338 338 338 338 338 337 335 332 331 333 333 334 335 333 331 331 332 331 332 335 335 332 328 325 325 325 324 323 321 322 319 319 327 329 326 327 329 329 329 331 331 332 332 331
315 316 315 316 316 316 316 316 315 316 316 317 317 317 316 316 316 317 317 316 318 318 320 332 345 346 346 346 345 346 344 343 343 344 344 343 344 338 327 327 327 333 340 338 338 338 337 340 341 340 340 339 339 339 338 339 339 338 337 336 334 332 331 332 333 334 333 332 331 330 330 331 332 331 328 325 325 326 326 326 326 325 327 324 323 326 327 326 327 328 328 327 328 329 330 329 329
313 314 316 316 316 316 316 316 316 316 316 317 317 316 316 316 316 317 317 317 320 321 324 336 345 345 345 346 345 345 344 342 342 342 342 340 339 329 322 327 327 331 337 336 337 337 336 339 340 339 339 339 340 339 339 339 338 338 337 336 333 331 330 331 331 332 332 332 331 329 328 330 330 327 324 323 324 325 326 326 324 322 324 323 323 324 323 324 325 326 325 324 325 326 327 324 326
313 313 315 316 316 315 315 316 316 316 316 317 316 315 316 316 316 316 316 321 327 330 335 343 345 344 345 345 345 345 344 342 342 341 340 339 333 324 323 332 335 333 333 334 335 336 336 337 338 338 338 339 339 339 338 337 337 336 336 335 333 332 330 329 330 332 332 332 331 329 328 329 327 323 322 324 324 324 323 322 321 320 321 320 320 320 319 320 321 323 323 323 323 323 324 323 326
314 314 315 315 315 315 315 316 316 316 315 316 315 315 316 316 315 315 322 329 334 339 343 345 345 344 345 345 345 344 344 343 343 340 339 337 328 322 324 332 337 334 329 330 330 334 335 336 337 337 338 338 338 338 337 335 335 335 336 335 334 334 331 328 329 331 332 332 331 330 330 328 325 323 323 324 324 324 323 323 322 321 321 320 320 320 319 319 320 323 324 323 321 321 324 325 326
315 315 315 316 316 316 316 315 315 315 315 315 314 315 316 316 314 317 331 336 337 341 344 345 345 345 345 345 344 344 344 344 342 339 339 336 326 321 325 330 334 334 331 329 327 332 335 335 337 336 337 336 336 338 336 335 335 335 335 334 335 335 331 329 330 331 332 332 331 329 330 328 325 324 324 325 325 324 323 324 324 323 324 322 321 321 321 321 322 323 324 323 321 322 324 326 328
314 314 315 315 315 315 315 315 315 314 315 315 314 315 315 316 314 316 331 336 336 340 342 344 344 345 345 344 343 343 343 343 342 340 339 337 329 323 328 330 330 331 334 334 334 335 336 337 338 337 335 333 334 336 335 336 336 335 335 334 335 334 331 330 330 331 332 332 332 330 329 327 324 324 324 326 325 324 325 327 327 327 327 326 324 323 322 322 323 322 322 324 324 326 327 327 328
314 314 314 314 314 314 315 315 315 315 314 315 315 314 314 315 315 319 331 333 335 339 341 345 345 345 345 343 343 342 342 342 342 341 338 338 334 325 329 331 328 330 335 337 337 337 338 339 339 338 335 333 333 334 335 337 335 334 335 334 335 334 332 331 330 330 330 331 332 330 328 326 324 324 325 326 326 326 328 330 330 330 329 329 328 326 325 324 325 325 324 326 328 329 330 329 328
314 315 314 314 314 314 315 315 314 315 314 315 314 312 313 315 315 323 332 333 336 339 340 344 344 345 344 342 342 342 341 341 342 341 338 339 337 328 330 332 329 332 334 336 338 338 338 339 339 339 337 335 334 334 336 337 334 334 335 334 334 334 332 329 327 328 330 332 332 329 327 327 326 325 326 327 328 328 330 330 330 330 329 329 329 328 328 327 328 328 328 329 330 331 331 331 330
314 315 314 314 313 313 315 315 314 315 313 314 314 311 313 316 317 324 332 335 336 338 339 343 344 345 344 343 343 342 342 341 341 340 338 337 335 330 331 332 331 332 333 335 337 339 339 339 339 340 339 337 335 334 336 336 333 334 335 334 333 332 329 327 328 330 332 333 331 328 326 328 328 327 327 328 329 329 330 330 329 329 328 328 328 328 329 329 329 329 330 330 330 331 331 331 331
314 314 313 314 313 313 315 315 314 315 314 315 314 312 314 316 317 325 333 335 335 335 337 341 344 344 344 344 344 343 343 342 341 341 339 336 333 330 332 333 332 332 334 335 335 337 339 339 339 339 338 335 333 334 335 333 332 333 335 334 332 329 326 328 331 332 333 332 331 329 326 328 331 330 329 329 329 330 329 329 330 329 329 329 327 327 327 328 328 328 328 328 328 328 329 330 330
315 313 313 314 313 313 314 315 315 315 314 315 314 313 315 316 317 325 332 334 335 335 336 340 343 344 345 345 344 344 343 342 342 342 341 338 334 332 332 333 333 333 335 337 336 336 337 339 339 339 338 335 333 333 332 331 333 334 334 332 330 328 326 329 333 334 333 332 333 331 327 329 333 332 331 330 331 331 329 328 331 330 329 329 328 328 328 328 328 328 327 328 328 329 331 330 330
314 314 313 314 314 313 313 313 315 315 314 315 315 314 315 316 317 325 331 332 333 333 335 338 339 342 344 344 344 344 344 343 342 342 342 340 336 334 333 334 336 336 337 338 338 336 336 338 339 338 338 335 333 332 330 331 334 334 332 330 329 327 326 330 333 333 334 334 333 331 329 331 334 333 333 333 332 331 329 329 329 329 329 329 329 329 329 328 329 329 328 328 328 331 333 330 328
315 315 314 314 314 313 313 313 314 314 314 314 315 315 315 316 316 322 328 331 331 332 334 336 336 340 341 342 343 343 344 344 342 342 342 341 339 337 336 336 337 338 338 338 338 337 335 335 337 337 336 334 332 332 331 333 334 333 331 329 329 328 327 330 333 333 333 333 333 332 331 332 334 333 332 332 331 329 328 329 328 327 328 328 328 328 328 329 329 329 328 327 328 331 331 328 328
315 315 314 313 313 313 314 313 314 314 313 314 314 314 315 316 316 318 324 328 331 331 332 334 335 338 339 340 342 342 343 344 343 342 342 341 340 339 337 337 337 337 338 338 338 337 334 334 337 337 336 334 333 333 334 334 333 331 330 329 330 330 329 330 333 332 331 332 334 334 333 333 334 332 330 329 328 329 328 328 327 327 328 328 327 327 327 327 328 328 326 325 326 327 327 325 327
314 314 313 313 313 313 314 314 314 314 313 313 314 315 315 316 317 318 320 323 328 330 332 333 333 335 336 337 339 341 342 342 343 343 343 342 341 339 337 336 336 336 338 338 338 337 334 335 336 336 336 334 333 334 335 334 333 331 331 331 331 331 330 330 331 330 329 331 333 334 334 334 333 330 330 329 328 328 328 327 327 328 328 328 327 326 326 327 327 327 325 324 326 326 326 326 327
315 314 313 313 313 313 314 314 314 314 313 313 314 314 314 316 316 319 321 320 323 326 331 334 333 334 334 335 337 339 341 341 342 343 343 343 341 339 337 335 335 336 337 337 337 337 336 336 336 335 336 335 334 336 335 334 334 333 332 332 332 332 331 331 330 329 329 330 332 333 333 333 332 329 329 329 328 329 328 327 328 328 327 327 327 327 327 327 327 327 325 324 327 327 327 328 328
315 314 313 313 313 314 315 315 314 314 313 313 315 314 315 316 316 318 321 320 321 322 326 331 333 334 333 334 336 337 339 341 342 342 343 343 340 339 337 335 335 335 336 336 336 336 336 337 336 334 336 337 336 336 335 335 334 333 332 332 332 331 331 331 332 329 328 329 331 332 331 330 329 328 328 329 329 330 329 328 329 328 327 328 329 328 327 327 327 327 326 325 327 328 327 328 328
315 315 313 313 314 314 313 314 315 314 314 314 315 315 315 316 317 318 319 322 323 322 325 330 332 333 333 333 335 337 338 340 341 341 342 342 339 339 338 337 336 335 336 337 336 337 337 337 336 335 336 337 336 335 335 335 334 333 332 331 332 331 330 331 331 328 326 329 332 331 328 327 328 330 331 331 331 332 330 330 331 330 330 330 330 329 328 328 327 327 329 327 326 327 327 328 328
315 316 314 313 314 314 313 314 315 314 314 315 314 313 314 315 316 316 319 326 326 325 325 329 332 333 333 333 335 337 337 338 340 341 342 341 339 339 339 338 337 337 337 338 338 338 338 337 336 335 336 336 336 335 335 334 334 333 332 331 331 330 330 330 328 327 326 329 330 328 327 327 329 331 332 331 332 332 330 331 332 331 332 331 330 329 329 329 329 329 331 330 328 329 328 327 327
314 316 316 314 314 314 313 313 314 313 312 315 315 312 312 315 316 316 320 325 327 327 327 327 329 332 334 335 335 337 337 338 340 341 342 341 339 339 338 338 338 338 339 339 339 340 338 337 336 335 335 335 335 335 335 334 334 333 331 331 331 330 330 329 328 328 327 328 328 327 328 328 329 329 329 330 331 330 329 330 331 332 332 330 329 330 329 328 330 331 332 331 329 331 330 328 328
314 315 316 315 313 313 313 313 313 311 311 316 317 313 312 314 316 317 319 322 323 327 329 328 327 328 332 335 336 337 337 338 339 341 341 340 339 339 338 338 338 338 339 337 337 338 338 337 336 336 335 336 336 335 334 334 334 332 330 329 331 331 330 329 328 328 327 328 328 328 329 328 327 327 327 328 328 328 327 328 328 329 329 328 327 328 327 327 330 331 332 331 330 331 330 330 329
314 316 315 313 313 313 313 313 312 312 314 317 316 315 313 313 315 318 320 322 324 328 330 330 328 326 330 334 335 336 336 338 339 340 340 338 338 339 338 338 338 338 338 335 335 337 338 338 337 336 336 336 336 335 333 333 333 332 329 329 331 332 331 330 328 328 328 328 328 328 327 327 327 328 327 326 326 327 327 326 325 326 327 326 325 326 325 327 330 330 330 330 331 331 330 331 330
314 315 314 313 314 314 313 313 313 314 315 314 315 316 314 312 315 320 323 323 326 330 329 329 329 328 330 333 335 336 337 338 339 339 338 337 337 338 338 338 337 337 336 335 335 336 337 338 336 336 336 335 334 333 331 331 333 332 330 330 332 333 332 331 329 328 329 329 328 327 327 327 328 328 327 327 327 327 327 326 326 326 326 325 325 326 325 325 327 328 328 329 329 329 329 330 329
315 314 313 313 314 313 314 314 313 315 316 313 314 316 313 312 313 319 324 325 327 330 328 328 330 330 332 334 335 336 337 337 338 338 337 336 337 337 337 337 335 333 333 333 334 336 337 336 336 335 335 334 333 332 331 332 333 331 330 330 331 331 331 330 328 327 328 328 327 327 328 328 328 328 327 327 327 327 326 325 325 324 324 322 323 325 323 322 324 325 326 327 327 327 328 329 329
315 313 313 313 314 315 315 315 314 315 315 314 314 316 314 311 313 322 328 328 329 329 328 328 329 332 334 335 336 336 337 336 337 338 337 336 336 336 336 335 333 333 332 332 334 336 335 335 334 334 333 333 333 332 332 332 331 330 330 330 330 330 330 329 328 327 327 327 328 329 329 328 327 326 326 327 326 325 324 322 321 320 320 319 319 320 320 321 322 322 324 325 325 328 330 329 328
314 313 313 314 314 315 315 315 316 315 314 314 314 316 315 311 316 327 331 329 328 328 328 328 329 332 334 334 335 336 336 335 336 336 336 336 335 335 336 334 333 334 332 331 333 335 334 334 332 331 331 332 332 332 333 331 330 330 329 329 330 329 329 328 328 327 327 328 329 330 328 326 324 322 324 326 324 321 320 319 319 319 319 317 317 317 319 321 320 319 322 324 324 326 328 328 328
313 312 314 314 313 315 315 314 315 314 313 315 315 316 314 313 322 330 330 328 327 328 329 328 329 333 333 333 334 334 336 335 335 335 334 334 334 334 334 333 333 333 332 332 333 334 334 332 330 329 330 331 331 331 332 331 331 331 329 328 330 329 328 327 326 327 328 329 329 328 325 322 320 320 321 322 320 318 319 319 320 321 320 318 317 317 318 319 319 319 321 324 325 325 324 326 328
312 312 313 313 313 315 315 314 314 313 314 316 316 316 313 314 325 331 328 328 329 329 330 329 330 332 332 332 333 333 334 334 335 335 333 333 332 333 333 332 332 332 332 333 334 333 332 330 330 331 331 331 330 329 330 331 331 330 328 328 327 326 328 327 325 327 328 327 326 324 321 321 321 321 321 321 318 319 321 320 320 321 319 317 317 318 317 318 321 323 323 324 325 325 323 324 326
313 313 313 313 313 314 315 314 312 313 315 317 317 315 313 315 325 330 329 329 330 330 330 330 331 331 331 332 332 332 332 332 333 333 332 332 331 332 333 332 331 332 332 333 333 332 332 331 331 331 330 330 329 327 329 330 329 328 327 326 323 323 326 327 325 326 328 326 323 320 320 323 324 324 324 322 319 319 321 319 318 318 316 316 317 318 319 320 321 323 323 324 324 324 323 323 323
314 314 313 314 314 314 314 315 316 315 314 317 317 315 316 322 326 329 329 329 330 330 330 330 331 331 330 331 331 331 331 331 331 331 331 331 331 332 333 333 333 332 332 332 332 331 333 333 332 331 329 328 328 328 329 329 328 327 326 323 321 321 324 325 324 325 326 324 319 319 322 325 325 324 323 321 318 318 318 317 317 314 312 316 318 319 320 319 319 321 323 323 322 322 322 322 322
314 314 313 314 316 315 315 316 318 316 313 316 316 314 319 325 326 328 327 327 329 329 330 331 331 331 331 331 331 330 331 331 331 331 331 331 331 331 332 333 333 331 331 332 331 331 333 333 332 332 330 328 329 330 329 328 327 326 325 322 320 320 321 322 324 326 325 321 320 321 322 324 323 320 318 318 317 317 316 317 316 311 309 315 318 318 318 316 316 320 322 322 320 320 320 321 322
314 314 314 315 316 316 316 316 316 315 314 316 316 315 318 320 323 327 326 327 329 328 329 330 331 331 331 331 331 331 330 331 331 331 331 331 331 331 332 333 333 333 333 332 332 332 333 332 331 331 330 329 330 330 329 328 326 323 321 322 323 322 320 320 322 323 323 320 321 322 321 321 320 318 316 316 316 318 317 316 314 308 307 314 317 317 316 315 316 319 320 321 319 319 320 319 318
315 315 315 316 315 315 315 315 316 315 314 315 315 315 316 317 322 326 326 328 329 327 328 328 329 331 331 331 331 331 331 331 331 331 331 331 331 332 332 332 332 333 334 334 333 333 332 332 331 331 329 329 330 329 328 327 323 319 319 321 325 325 323 321 320 320 321 321 321 321 321 320 318 316 315 315 317 319 317 314 312 307 306 310 313 314 314 315 317 318 318 319 318 318 319 317 316
314 315 315 316 316 316 316 315 315 315 314 315 315 315 318 322 326 327 326 328 328 327 327 328 329 330 330 329 330 331 331 331 330 330 330 330 330 331 331 331 331 332 333 333 333 332 332 332 331 331 330 329 328 329 328 324 319 319 321 323 326 327 324 322 320 319 320 320 320 321 320 318 315 314 315 316 319 319 317 315 311 307 306 307 308 310 313 315 316 317 317 317 316 316 317 318 317
314 314 314 315 316 317 317 316 315 314 314 315 314 315 321 326 326 325 326 327 327 327 327 327 328 328 328 328 329 330 330 330 330 329 329 329 330 329 329 330 331 331 331 331 331 331 331 331 331 331 331 329 329 330 329 325 321 322 324 325 327 327 325 323 321 320 319 319 320 321 321 317 314 313 316 319 321 319 318 317 313 308 306 305 305 306 311 315 316 316 316 316 316 316 317 319 319
315 315 314 315 316 316 315 315 315 314 314 315 314 316 323 325 323 324 325 325 326 327 326 326 327 327 327 327 328 329 329 329 328 328 327 328 329 328 329 330 330 331 331 330 330 329 329 330 330 331 331 330 330 331 330 328 326 324 325 326 327 328 326 324 321 321 321 319 319 321 321 318 314 314 318 322 322 320 320 318 312 308 306 306 306 305 309 315 314 312 313 315 316 316 317 319 320
Wind_Speed
7 8 8 8 10 8 6 6 5 3 4 5 4 3 3 3 3 2 2 1 2 1 4 8 10 11 9 9 9 10 9 7 7 3 0 4 6 13 14 15 20 22 25 29 30 27 25 23 21 20 19 20 19 18 17 16 16 17 18 18 19 19 20 20 20 19 18 17 17 16 15 15 14 12 11 11 11 13 14 15 16 16 17 18 19 20 21 21 20 19 19 19 20 22 23 24 24
8 8 8 9 11 5 5 5 5 2 5 5 3 2 3 3 2 3 1 3 4 5 10 12 14 13 10 10 10 10 6 4 6 5 4 6 11 12 12 15 19 22 24 28 30 27 25 23 21 20 21 21 19 17 16 15 15 15 16 17 18 19 20 21 21 20 19 19 18 17 16 15 14 12 11 11 11 12 13 14 15 16 17 18 18 19 20 20 19 18 18 18 20 22 23 24 24
11 10 8 9 9 4 3 5 6 3 5 5 1 3 3 2 2 2 4 7 9 11 13 12 13 8 8 8 5 6 1 2 3 5 6 9 12 12 14 16 19 22 22 26 29 27 25 24 22 21 21 21 19 17 16 15 14 14 15 16 18 19 20 21 21 21 20 19 18 17 16 15 14 13 12 11 11 12 13 13 15 16 17 18 18 18 18 18 18 18 18 18 20 22 23 23 24
12 11 10 8 7 5 4 4 4 4 5 4 0 5 3 1 3 5 7 10 11 12 11 10 8 1 5 5 1 3 0 2 1 3 7 9 11 15 17 17 20 22 21 24 26 25 25 24 22 22 22 20 19 17 15 15 14 13 14 15 17 18 20 21 21 20 20 18 16 16 15 14 13 13 12 11 11 12 13 12 14 17 17 17 17 17 17 17 17 18 18 17 20 23 23 23 24
11 10 11 7 5 3 3 4 3 5 4 3 1 4 3 3 6 9 10 12 11 10 8 8 4 3 2 2 4 4 1 2 2 5 8 9 11 17 19 19 21 22 20 21 23 23 25 24 23 23 22 20 18 17 15 14 13 13 14 15 16 18 19 19 19 19 18 17 15 15 14 13 13 12 12 11 11 12 13 12 14 17 17 17 16 16 17 16 16 18 18 18 21 22 23 23 23
9 8 9 6 4 2 4 4 4 6 3 3 4 2 4 5 9 11 11 12 9 7 5 6 4 3 2 3 3 3 1 2 5 7 9 10 14 18 19 20 21 22 20 21 21 22 26 24 23 23 21 19 18 16 15 14 13 13 13 14 15 17 18 18 19 18 17 16 14 14 13 13 13 12 11 11 11 12 13 13 14 17 17 16 16 16 16 16 16 18 20 20 21 22 22 23 23
9 7 8 6 3 3 6 5 5 4 1 2 5 5 7 8 10 11 11 10 5 3 4 3 3 4 2 4 3 4 0 3 5 7 10 13 17 18 18 19 21 21 21 21 19 21 25 24 23 23 21 19 18 16 15 13 13 13 13 13 14 15 17 17 18 18 16 15 14 14 14 14 14 12 10 9 10 12 13 14 14 17 18 16 16 16 16 16 17 19 21 21 21 21 21 21 22
10 6 6 6 3 4 6 5 5 3 1 2 4 6 8 9 10 10 10 8 6 4 5 4 5 6 3 4 1 4 2 4 6 9 12 16 18 18 18 19 22 22 20 19 18 23 26 24 24 22 21 19 17 16 15 14 13 12 12 13 13 15 16 17 18 17 17 16 15 16 16 16 14 12 10 9 10 11 13 14 15 18 18 17 17 16 16 16 18 20 21 21 21 21 20 20 20
9 4 4 6 4 4 5 6 4 2 2 2 3 4 5 7 9 10 9 8 8 6 7 5 6 6 5 5 3 4 3 5 8 12 14 17 19 18 18 18 22 24 20 18 19 25 26 25 25 23 21 19 17 16 15 14 13 13 13 13 13 15 17 17 17 17 17 17 17 17 17 15 14 12 11 10 10 11 14 15 16 18 18 16 16 16 16 17 19 20 21 20 20 20 20 20 19
8 6 4 5 4 5 6 5 3 1 1 1 3 3 4 7 9 9 9 9 7 6 6 4 7 6 5 7 6 5 5 8 12 14 15 17 19 18 18 18 21 24 21 19 22 27 27 26 25 23 21 19 18 16 15 14 14 14 13 13 14 15 17 17 18 17 17 16 16 17 17 15 13 12 11 10 9 10 14 16 16 18 18 16 16 16 16 17 19 20 20 20 19 19 19 19 18
7 6 5 5 5 5 5 4 3 1 2 1 1 3 5 8 8 8 10 8 6 5 4 4 8 8 6 6 6 6 7 11 14 14 16 18 19 18 18 18 20 23 22 22 26 28 28 26 24 22 21 19 18 16 15 15 14 14 14 14 15 15 16 17 18 17 16 16 16 15 15 14 12 11 9 9 9 10 13 16 17 19 18 15 15 16 16 18 19 20 20 19 18 18 18 17 17
6 5 5 5 5 5 4 4 2 1 1 1 4 5 6 8 8 9 11 9 5 3 4 5 4 7 8 6 6 7 10 12 14 15 16 18 18 18 18 19 20 22 23 24 28 29 28 27 25 22 21 19 18 16 16 15 15 14 14 14 14 15 16 17 18 17 16 16 16 15 14 12 11 10 10 10 9 8 11 14 17 19 18 16 16 15 16 18 19 20 19 19 18 17 17 16 15
7 4 5 5 4 5 5 5 2 3 2 3 5 5 7 7 10 11 11 10 4 2 2 4 2 6 6 6 7 8 12 15 16 16 17 16 17 18 18 19 20 23 25 26 28 30 29 27 25 22 20 19 17 16 15 15 15 14 14 13 13 14 15 16 17 17 17 16 15 14 13 12 11 12 11 10 8 7 9 11 15 17 17 18 16 15 16 18 18 19 19 18 18 17 16 15 14
7 4 5 4 4 5 6 5 3 4 2 7 6 7 6 5 11 11 11 10 5 6 2 3 4 6 4 5 7 10 14 17 18 17 17 16 17 18 18 19 21 23 26 26 28 31 29 25 24 22 20 18 17 16 16 15 14 13 13 13 13 14 15 16 17 17 17 16 15 14 14 13 13 13 12 11 9 9 10 11 12 13 14 17 17 15 17 19 18 18 19 18 17 17 15 14 13
7 4 5 5 5 6 5 5 3 4 3 7 5 8 6 3 9 10 11 10 6 6 2 4 5 4 3 4 6 13 17 18 19 18 17 16 16 17 18 19 21 24 26 26 28 30 26 23 23 22 20 18 18 17 16 15 13 13 13 13 14 14 16 16 16 17 16 16 16 15 15 14 14 14 13 12 12 12 13 13 12 10 10 14 17 16 17 19 18 17 17 17 17 16 16 14 12
7 4 5 5 6 6 4 4 4 4 3 6 5 9 7 5 8 9 10 9 5 4 3 3 4 1 1 3 1 14 18 18 19 18 18 17 16 16 18 20 22 23 24 24 26 27 24 22 22 21 20 19 19 17 16 15 14 13 13 13 13 14 15 15 16 16 16 16 15 16 15 15 15 14 14 14 14 15 15 14 13 11 9 11 15 16 17 18 18 16 15 14 14 14 15 14 12
7 6 6 5 7 6 3 4 2 1 3 5 7 10 9 8 8 9 9 6 5 5 3 2 4 1 4 5 6 14 18 18 18 17 17 17 16 15 17 20 21 22 23 22 23 24 24 23 23 22 22 20 19 17 16 16 15 14 14 12 12 13 14 15 15 15 14 14 15 15 16 16 15 14 15 15 16 16 15 14 13 12 10 11 13 15 16 18 17 16 14 13 11 11 12 12 12
8 6 6 6 7 4 1 0 3 3 3 5 9 10 10 10 9 11 10 4 4 5 2 3 3 2 4 6 11 13 16 17 16 16 16 16 15 14 15 18 20 20 23 24 23 24 25 25 24 23 22 20 18 17 17 17 16 15 15 13 12 13 13 14 15 14 14 15 15 15 16 16 14 14 15 15 15 15 15 14 13 13 12 12 13 14 15 16 16 15 14 13 11 9 9 9 10
9 5 6 7 4 3 5 3 4 3 5 7 9 9 10 10 9 11 10 7 6 4 3 4 5 4 6 11 12 13 17 17 16 17 17 18 17 14 14 16 18 19 21 23 22 23 24 24 25 23 21 20 18 17 17 16 16 15 15 14 13 13 14 15 15 15 16 16 16 15 15 15 13 13 16 15 14 13 13 12 11 13 13 13 13 14 15 16 16 16 14 13 11 9 8 8 8
11 7 7 6 1 3 2 1 2 3 7 8 9 10 11 9 9 10 10 10 6 1 2 2 6 8 10 12 12 15 19 18 18 19 19 18 15 15 15 15 15 17 19 18 18 18 18 21 22 21 19 19 18 17 16 16 15 14 14 13 13 14 15 16 17 16 16 15 15 14 12 13 11 11 14 14 11 10 10 10 10 11 13 14 14 13 14 16 16 16 15 14 13 10 8 8 8
8 8 8 2 2 2 1 1 2 4 8 9 10 10 10 9 10 10 10 9 3 5 7 3 4 11 13 14 15 18 20 21 20 18 19 17 18 18 15 15 12 12 17 14 14 14 14 17 18 18 19 19 18 16 15 15 15 14 14 14 14 16 16 17 16 16 16 15 14 13 12 12 11 10 11 11 10 9 9 8 7 9 10 12 12 10 11 14 15 15 16 15 14 12 9 9 8
6 9 12 5 2 5 1 2 5 7 9 10 10 10 10 11 12 10 9 8 4 7 7 4 6 14 15 16 18 18 19 21 20 18 19 19 22 18 11 14 9 5 14 13 13 14 12 13 14 16 17 18 18 16 15 15 15 15 15 15 15 16 16 17 17 16 16 15 14 13 12 11 11 11 11 11 10 10 9 8 7 7 8 9 10 9 9 11 12 11 14 16 15 13 12 10 9
8 9 12 10 8 8 5 7 9 9 10 10 10 10 11 12 12 9 9 10 8 8 5 2 9 15 15 17 17 18 19 20 20 19 19 18 19 12 10 15 9 7 13 14 14 14 13 13 13 15 16 17 16 16 16 16 16 16 16 15 15 17 16 17 18 17 16 15 15 14 13 12 12 12 11 12 11 11 11 10 9 9 8 9 9 9 9 10 11 10 11 14 14 12 13 11 9
11 8 7 9 10 10 9 10 10 10 11 10 11 11 12 12 10 9 12 10 8 7 1 6 12 15 15 16 17 19 20 20 21 17 16 15 14 10 11 17 17 19 19 15 16 16 16 15 13 15 15 15 15 16 18 18 17 15 15 14 15 16 15 16 17 17 16 15 15 15 15 14 12 13 13 13 12 12 12 11 11 10 9 9 10 9 10 11 11 11 11 12 12 11 11 11 10
13 11 6 8 9 9 9 10 11 11 11 11 10 12 12 11 10 13 14 7 4 2 6 12 15 16 16 16 17 19 20 20 19 15 14 14 15 12 14 20 24 28 22 18 18 18 19 18 16 16 15 17 17 16 17 17 16 15 15 15 14 14 14 14 15 16 16 16 15 14 15 15 14 14 15 14 13 12 11 11 11 11 10 9 10 10 10 10 10 10 11 10 10 10 10 10 10
10 13 10 9 9 9 9 10 11 11 11 9 10 12 11 7 9 11 6 2 2 4 11 14 16 17 16 16 17 19 19 19 18 16 16 17 18 13 14 22 22 25 31 27 23 21 22 21 19 18 18 19 17 15 15 15 15 15 16 15 14 13 13 14 14 16 16 16 16 14 14 15 15 15 14 14 12 11 11 11 11 11 11 10 11 11 10 10 10 10 9 9 8 8 10 12 11
4 10 10 10 10 9 8 8 10 11 10 10 11 12 9 5 7 5 4 4 2 8 12 13 14 16 16 16 16 18 18 19 18 18 19 19 19 12 12 22 19 21 33 33 28 26 26 23 21 21 20 18 15 14 14 15 15 15 14 14 14 13 13 13 13 14 14 13 14 14 14 13 14 15 14 14 12 11 11 11 11 11 11 11 11 10 10 11 10 10 9 8 8 8 9 11 11
4 7 8 9 9 9 8 8 9 8 8 10 10 11 10 6 9 7 3 3 4 8 11 13 13 14 15 15 15 16 16 17 17 18 23 22 19 14 15 21 19 21 26 24 26 28 26 24 22 23 22 18 17 15 15 16 15 14 14 14 13 13 13 12 11 11 11 12 13 15 15 13 13 14 13 13 12 12 12 11 11 10 10 10 11 10 10 10 9 9 9 9 9 9 8 8 10
7 7 7 7 8 9 9 8 7 7 7 6 6 10 10 10 11 6 4 2 5 8 10 12 13 13 15 15 15 15 15 16 17 18 22 21 18 17 19 22 20 22 23 20 21 22 22 21 21 21 21 20 17 15 17 17 14 14 15 15 13 13 12 12 11 11 12 14 15 16 16 14 13 13 13 13 12 12 11 11 11 10 10 9 9 10 9 9 8 8 9 9 9 8 7 7 8
7 7 7 5 7 6 6 5 5 6 5 4 5 7 6 10 10 5 6 4 7 9 11 11 12 13 14 15 16 15 15 17 18 19 19 19 19 19 21 23 22 22 24 22 20 19 19 19 18 18 18 18 17 16 18 17 14 15 16 14 13 13 13 12 12 13 13 14 17 18 18 16 15 14 13 13 12 12 11 11 11 10 9 9 8 8 8 8 8 9 9 9 8 7 7 8 8
5 4 5 5 6 3 7 4 4 5 2 4 8 6 4 7 8 7 5 7 9 10 11 11 11 13 14 15 16 15 16 17 18 18 17 18 20 21 23 25 24 24 24 23 21 18 17 19 18 17 18 18 17 17 18 16 14 14 15 13 13 13 13 12 12 12 14 17 20 20 19 16 15 15 14 13 13 12 11 10 9 8 8 8 8 8 8 8 9 9 9 9 8 7 7 8 9
5 4 5 5 5 3 7 4 3 2 3 5 8 6 5 5 8 8 6 7 9 10 12 12 12 14 13 14 16 16 16 17 17 17 17 18 20 22 24 25 26 26 22 20 21 19 17 18 18 17 18 17 15 15 16 14 14 14 14 14 14 13 13 12 11 11 14 19 19 17 18 16 14 14 14 14 13 12 11 9 7 7 7 7 7 8 8 9 9 10 10 9 9 8 8 9 10
6 6 5 4 4 3 5 6 4 2 0 5 7 5 4 3 7 8 6 7 9 9 12 13 13 15 14 14 15 15 16 17 17 17 17 18 20 22 25 25 25 24 20 17 18 19 17 15 15 16 15 13 13 15 14 13 15 15 14 15 15 14 13 12 11 12 13 16 16 15 17 16 14 13 12 13 12 11 11 9 7 6 6 6 6 7 9 9 9 10 10 10 9 7 7 10 10
6 6 5 4 4 3 2 5 6 3 4 4 5 6 6 4 4 7 7 7 8 9 11 13 13 15 15 15 15 15 16 17 19 19 18 19 20 22 24 22 20 18 17 16 15 16 16 15 15 16 14 14 15 15 14 15 15 14 14 16 15 15 14 12 13 14 14 14 14 14 16 15 13 13 12 11 11 11 10 9 8 7 7 7 7 8 9 10 10 10 11 11 10 7 6 9 9
5 6 5 5 5 6 4 3 4 2 6 6 6 7 8 9 6 7 7 7 8 8 10 12 14 14 14 15 15 15 15 16 18 18 18 18 17 19 19 16 15 15 14 16 15 15 16 15 15 15 15 16 17 16 17 17 16 15 16 16 15 15 15 14 15 15 16 15 13 14 15 14 13 12 12 12 11 11 10 9 8 8 8 8 8 8 9 10 10 10 10 11 11 9 8 10 9
2 3 4 5 4 5 4 2 1 2 6 8 9 9 8 9 7 6 7 6 7 8 9 11 14 15 15 16 16 17 15 14 16 17 18 18 15 15 15 13 15 14 14 16 15 14 13 13 15 17 18 18 18 18 18 17 17 17 17 17 15 15 15 17 17 17 18 17 14 14 14 13 13 12 12 12 12 11 10 9 9 9 9 8 8 8 9 10 10 9 10 10 11 10 9 9 9
2 3 5 6 6 4 3 3 4 3 6 8 10 11 10 9 8 5 7 6 7 9 11 13 15 16 17 17 17 18 16 13 14 16 18 18 15 15 15 14 15 15 15 16 16 14 12 13 17 18 19 20 20 20 19 18 18 17 17 16 15 15 16 18 19 19 19 17 14 13 13 13 12 13 13 12 11 11 10 9 9 9 9 8 8 8 9 10 10 9 9 8 8 8 8 7 8
6 6 6 7 8 6 3 4 5 3 5 9 10 12 11 11 11 6 6 6 8 10 13 14 16 17 17 18 18 18 16 13 14 16 17 17 16 17 17 15 16 16 17 17 16 15 12 14 18 18 18 20 20 20 20 19 17 16 16 15 14 15 17 18 19 19 18 17 16 14 13 13 13 14 13 11 10 10 10 9 9 9 8 8 7 8 8 9 9 8 8 8 7 7 7 7 8
7 7 7 7 6 4 3 5 5 3 4 7 9 10 10 11 12 8 7 9 9 10 13 15 17 17 18 18 18 18 16 15 15 16 17 16 16 17 16 16 17 16 16 16 15 14 13 15 18 17 18 20 19 19 19 18 16 16 14 14 15 16 17 19 19 19 19 18 15 14 14 14 14 13 11 9 10 10 11 10 9 9 9 8 8 7 7 8 8 8 8 8 8 8 8 9 9
8 6 7 6 4 3 4 5 5 4 5 7 7 7 8 9 11 10 11 10 8 9 12 14 17 17 18 17 16 17 17 17 17 16 17 16 15 16 15 15 17 16 15 15 15 14 14 17 19 19 19 20 20 20 20 18 17 16 15 14 14 15 18 20 20 20 20 18 15 15 15 15 13 10 10 10 10 11 11 10 9 9 9 9 8 7 7 7 7 8 7 7 8 8 9 10 11
9 9 9 7 5 5 5 4 3 5 8 9 8 7 7 10 12 12 10 8 8 9 11 14 16 17 18 17 16 15 15 16 15 16 17 15 14 16 15 15 16 15 14 15 16 17 16 17 18 20 20 21 21 21 20 18 17 17 16 15 15 15 17 20 20 19 19 18 16 16 15 14 12 10 11 11 10 11 11 10 9 9 9 9 8 7 7 7 6 7 8 8 8 8 8 10 10
8 10 11 10 9 9 10 10 6 7 8 8 8 7 7 9 12 11 8 8 9 9 11 14 16 17 18 18 17 15 13 14 13 15 16 13 14 15 15 16 17 16 16 16 16 17 17 16 16 19 21 20 19 18 18 18 17 18 17 17 18 18 18 18 19 18 18 18 16 15 14 12 11 11 11 11 11 11 11 10 10 9 9 9 9 8 8 8 8 8 8 8 8 7 7 7 9
7 5 8 11 12 12 12 9 6 6 4 5 7 8 6 5 9 10 9 9 10 9 8 10 13 17 18 18 16 14 14 13 13 15 14 12 14 17 16 16 16 16 17 16 16 16 16 14 15 18 18 17 16 16 17 17 17 18 19 19 19 18 18 18 19 18 17 16 15 15 13 12 11 11 11 11 10 10 10 9 9 9 9 8 7 7 7 8 9 9 9 8 8 7 7 6 8
5 2 3 9 10 11 10 8 8 7 3 4 8 8 7 6 7 7 9 9 8 7 6 7 10 14 16 17 15 13 13 12 14 16 14 12 14 16 16 15 14 15 15 15 15 14 14 14 14 15 15 16 17 16 16 17 17 18 20 19 17 17 16 16 17 16 15 14 14 14 12 11 11 10 10 10 10 9 9 8 8 8 8 7 6 6 7 8 8 9 9 9 9 8 8 7 9
5 2 2 6 6 8 9 8 8 6 4 6 10 9 7 7 6 6 6 7 5 4 3 4 7 11 15 17 14 11 10 11 15 16 14 14 15 15 15 14 13 12 12 12 11 11 13 14 14 15 17 18 17 15 16 19 18 18 20 19 16 16 15 15 16 15 14 13 13 13 12 11 10 10 10 10 10 9 9 8 8 8 7 7 6 6 7 8 8 8 8 9 9 8 8 7 8
4 1 4 5 4 6 7 7 7 5 5 8 9 9 8 7 6 5 3 4 3 2 1 2 5 9 12 14 13 11 10 11 15 15 14 14 15 15 15 13 11 9 8 7 8 9 11 12 12 15 17 15 14 15 17 19 18 18 20 19 17 17 17 16 15 15 15 13 13 13 11 10 9 9 9 9 9 9 8 8 8 7 7 7 7 6 7 7 8 8 7 7 7 7 8 7 7
2 3 6 5 5 5 5 6 6 5 7 9 9 10 8 8 4 2 2 2 1 1 0 3 5 8 9 9 10 11 12 13 13 12 11 11 12 14 13 11 11 9 9 8 6 8 10 10 9 10 12 10 12 17 19 19 19 19 20 18 17 18 18 16 14 14 15 13 13 12 10 9 9 9 9 9 10 9 9 9 8 8 8 8 7 6 7 7 8 7 6 6 6 6 7 7 6
5 6 7 5 6 5 5 6 5 7 8 6 6 8 9 9 2 5 5 4 3 1 0 1 6 10 11 10 10 11 12 13 12 11 11 10 10 11 11 10 9 9 12 11 8 9 10 9 6 7 13 13 15 20 21 21 21 20 19 17 16 17 17 16 15 15 15 13 12 11 10 10 10 10 10 10 10 10 9 8 8 8 8 8 7 7 7 7 8 8 7 6 5 6 6 6 5
8 7 7 7 6 6 7 7 6 8 6 4 4 6 8 7 2 5 5 5 4 3 2 2 6 10 11 11 11 11 11 12 13 12 11 11 11 11 10 10 9 10 12 11 9 12 13 10 8 11 16 15 15 19 21 22 21 19 19 18 17 16 16 16 15 15 15 14 12 12 11 12 12 12 11 11 10 9 8 8 8 7 7 8 8 8 7 7 8 8 8 7 6 6 6 6 5
9 8 7 8 7 7 8 8 7 8 5 4 4 4 7 6 3 6 6 6 5 6 4 2 6 10 11 11 12 11 11 12 13 12 11 12 12 12 12 11 11 11 13 13 12 14 15 13 11 11 13 14 16 19 21 22 21 19 19 19 19 17 15 15 14 15 16 15 13 12 12 12 12 11 11 11 11 10 9 8 8 7 8 9 9 8 8 8 7 6 6 7 6 6 7 7 6
10 9 8 8 7 7 7 6 7 7 5 4 5 4 6 6 3 6 7 7 7 8 8 6 8 9 10 10 11 11 11 11 11 10 10 10 11 12 11 11 10 10 13 15 13 14 16 15 11 12 15 17 19 21 23 24 22 20 20 20 19 17 15 15 14 14 14 13 13 13 12 11 10 11 11 11 12 11 9 9 9 9 9 10 10 10 9 8 7 7 7 7 7 6 7 8 7
8 8 8 8 7 7 4 2 1 3 4 4 5 4 2 1 4 6 6 7 8 10 10 8 8 8 8 9 8 9 9 9 9 10 10 9 10 10 10 10 11 12 15 16 13 15 18 15 11 13 17 20 21 22 25 25 22 22 22 19 18 18 17 16 15 14 13 13 13 13 12 11 11 12 12 12 14 12 11 11 10 9 10 11 11 11 10 9 9 9 8 9 8 7 7 7 6
5 7 8 6 5 6 4 2 2 1 6 3 4 5 2 5 5 5 5 5 9 11 11 9 8 8 7 8 8 8 8 9 9 10 9 9 10 9 8 9 11 15 17 15 13 14 16 13 11 13 18 21 22 22 25 25 22 21 20 18 18 18 17 15 15 14 14 14 14 13 13 13 13 14 14 15 15 14 12 11 8 8 10 12 12 12 11 10 10 9 9 9 8 8 7 6 5
5 6 7 5 3 5 5 4 4 4 7 4 4 7 5 5 3 4 4 5 8 9 9 8 7 8 8 9 11 10 9 10 9 8 9 9 9 8 8 8 11 15 16 14 14 14 13 12 12 14 18 20 21 21 24 24 21 20 20 20 19 18 16 14 14 15 15 15 15 14 15 14 14 14 15 16 16 14 13 11 8 8 10 12 12 12 11 10 9 9 10 9 8 8 6 5 5
8 4 4 4 5 6 6 6 5 6 7 5 5 7 5 4 3 4 5 5 8 7 7 7 6 9 10 10 11 11 11 11 10 9 9 9 8 7 7 8 11 14 14 13 14 15 13 11 11 14 16 18 20 22 23 22 20 20 22 22 20 18 16 15 14 15 15 15 15 15 14 14 14 14 16 17 17 15 13 10 8 9 11 12 13 12 11 10 10 10 10 9 8 7 6 5 5
9 6 6 5 4 5 5 5 6 6 6 5 5 5 3 1 3 5 5 7 7 7 7 6 6 8 10 9 9 10 12 12 11 9 7 6 6 6 7 8 10 12 13 13 15 15 14 12 12 14 16 19 23 25 23 22 22 21 21 22 21 19 17 16 15 15 15 16 15 15 14 13 13 14 17 18 18 15 13 10 8 9 11 12 12 12 11 11 10 10 9 9 9 8 7 6 7
9 8 8 7 5 4 4 5 5 5 5 5 5 5 2 4 4 4 6 6 6 7 7 6 6 7 7 8 8 8 9 10 9 8 6 6 5 4 5 6 6 7 9 11 14 15 14 13 14 16 18 21 24 25 24 24 23 21 20 22 23 20 17 16 15 15 15 15 15 14 13 13 13 15 18 18 17 15 12 9 8 9 11 12 12 12 12 11 10 10 10 9 9 9 8 8 10
6 7 8 8 7 6 6 6 6 6 5 4 5 3 3 4 2 3 5 5 5 8 8 6 6 5 5 7 8 7 7 7 6 5 5 6 4 3 4 5 4 5 7 8 12 14 15 15 15 16 18 20 23 24 24 24 24 22 21 22 22 21 18 17 16 16 16 15 15 14 13 13 13 16 18 17 15 14 12 10 9 10 11 12 12 12 12 11 10 10 11 11 9 9 9 10 10
Wind_Direction
159 164 164 166 149 143 176 207 228 194 239 257 241 262 128 125 328 282 197 197 248 164 319 307 302 300 281 277 286 291 302 306 326 329 34 56 132 153 155 156 165 163 158 165 165 164 164 162 162 163 162 156 149 145 145 146 152 158 164 167 167 169 170 173 172 171 170 167 165 161 158 155 153 153 146 141 145 148 145 141 137 136 136 136 133 129 126 125 123 120 116 108 102 98 95 93 92
165 163 161 159 150 165 189 208 258 191 223 254 225 234 78 123 234 253 341 341 324 334 314 303 297 291 269 268 279 273 273 306 358 46 85 113 140 152 161 160 160 158 157 163 164 162 162 162 163 163 160 153 147 145 144 145 148 153 162 169 171 173 174 176 175 174 173 171 169 163 161 158 155 154 151 147 149 151 148 146 142 139 139 136 134 132 129 129 127 124 121 112 107 102 98 96 95
166 158 158 163 158 219 205 203 260 238 240 265 174 89 58 198 180 27 359 331 324 315 304 301 294 281 245 237 245 257 259 61 44 76 113 138 149 156 159 160 160 157 156 160 162 162 162 163 163 163 159 152 147 147 147 147 149 152 159 166 171 175 177 179 178 176 175 173 169 163 162 161 158 156 154 153 154 152 152 153 147 143 142 138 137 134 131 131 130 129 125 116 112 106 102 99 97
163 159 159 179 189 220 212 215 259 264 260 271 109 89 76 72 37 357 336 323 317 306 301 302 291 251 248 246 350 276 251 73 62 103 137 152 162 159 157 162 160 156 156 156 159 161 162 162 161 161 157 151 149 150 150 150 152 154 158 163 169 174 178 181 180 177 174 170 165 162 160 160 159 156 154 154 155 151 153 155 150 150 148 141 139 137 134 134 132 132 129 122 117 111 106 103 100
159 167 165 194 230 218 229 245 252 254 263 305 320 96 76 11 353 334 326 319 311 301 299 295 272 153 245 337 349 298 63 78 129 136 146 153 159 158 161 163 159 156 154 155 158 161 162 160 159 160 155 151 152 154 153 152 155 155 158 163 167 172 176 180 178 173 170 166 162 159 155 156 157 155 151 150 154 153 152 156 155 154 151 145 143 139 137 136 130 129 130 127 120 115 111 108 105
155 172 171 208 264 252 248 243 228 241 258 320 297 47 34 353 340 328 319 317 313 298 289 283 267 193 180 73 20 356 17 147 145 152 151 152 155 158 162 161 157 153 154 158 158 160 161 158 158 158 155 155 157 158 156 156 158 157 158 161 164 167 170 173 172 169 166 163 160 158 156 158 157 155 149 149 156 158 159 162 162 157 153 148 146 141 139 137 129 125 129 128 121 117 115 112 110
161 175 182 208 225 220 247 246 248 251 115 344 299 338 356 346 336 321 317 320 317 288 258 265 272 245 170 128 99 46 25 154 145 164 153 152 154 155 160 161 156 152 157 159 155 160 159 156 158 157 158 161 161 160 159 160 159 155 155 155 159 160 164 167 167 167 165 163 163 161 162 161 157 154 152 157 163 166 166 167 166 159 154 151 149 145 142 139 132 129 129 126 121 119 116 113 111
166 177 196 219 202 209 250 250 259 275 77 354 316 340 342 334 328 318 322 318 308 294 263 265 258 246 158 148 146 64 89 130 152 161 148 151 153 154 159 161 157 154 158 155 155 159 156 156 159 160 162 163 162 162 162 162 157 153 150 148 152 155 159 163 167 167 165 166 166 164 164 161 156 155 156 159 164 170 170 169 167 161 157 155 153 149 147 143 135 131 130 127 123 120 116 113 111
177 200 204 232 236 216 248 249 248 263 264 329 337 346 331 324 328 320 320 311 306 290 265 264 237 225 145 139 111 101 122 124 146 150 150 154 153 157 159 163 163 161 158 153 157 157 156 159 162 164 166 166 164 164 165 162 156 151 146 143 146 152 158 161 164 164 164 165 165 165 164 162 156 154 157 157 161 173 172 169 169 163 158 156 154 153 152 145 136 133 134 131 125 121 118 114 112
190 226 224 237 250 234 241 242 228 214 180 20 348 355 347 336 331 322 322 320 320 295 266 249 224 217 154 140 119 129 144 133 145 149 153 154 155 161 161 165 167 164 158 156 160 159 159 161 164 168 168 167 166 166 166 162 157 151 143 139 142 150 158 159 158 160 161 161 162 164 161 159 155 153 158 160 166 181 177 171 171 165 158 156 155 157 157 147 139 139 139 136 130 126 122 117 115
197 214 239 243 235 242 241 239 222 175 110 31 26 62 7 342 328 329 332 331 335 304 244 210 214 204 175 135 120 145 144 143 150 151 153 156 160 163 161 164 166 165 161 161 162 161 162 162 167 169 168 167 166 168 166 163 157 150 142 137 139 146 154 157 157 158 159 159 161 163 159 160 159 157 163 163 169 187 181 173 173 165 158 157 160 162 159 151 144 144 143 139 135 132 127 122 119
223 188 216 241 235 248 257 273 268 288 255 186 108 73 354 339 341 345 341 340 350 312 201 197 202 188 186 143 133 152 147 155 157 154 154 159 166 163 162 165 166 168 164 164 165 165 164 164 168 167 167 167 167 168 165 162 154 149 145 140 140 143 148 153 156 160 161 162 163 165 165 165 163 159 161 159 166 186 180 172 171 164 159 160 165 168 162 156 151 148 148 145 140 137 132 127 124
238 198 217 242 256 261 266 281 276 279 246 129 92 37 346 346 357 352 341 344 10 358 175 198 221 186 182 127 135 158 155 164 165 157 156 163 167 164 166 168 167 169 167 167 168 167 167 167 166 165 166 166 166 166 162 157 152 151 149 145 144 143 147 151 157 163 164 167 169 169 168 165 160 155 153 154 163 178 171 163 166 167 166 164 167 171 166 162 158 155 154 151 144 141 137 133 131
230 231 245 249 258 260 264 264 248 254 177 108 74 9 344 351 355 351 348 351 26 9 343 194 214 190 168 130 152 176 171 170 168 158 159 164 165 167 170 170 169 171 170 170 172 171 170 166 163 163 163 163 162 160 158 156 153 153 149 147 145 145 150 154 160 164 164 167 170 171 169 165 162 156 150 149 152 156 149 145 157 170 174 173 173 173 169 167 166 164 161 154 147 145 141 138 136
226 238 251 259 257 247 241 244 264 257 132 98 64 3 341 355 351 349 360 347 16 18 325 172 199 206 192 213 185 181 178 169 168 162 161 161 164 172 173 172 172 173 173 173 175 173 170 165 162 164 162 162 163 158 156 156 155 150 145 145 144 148 154 157 162 162 162 163 166 168 167 167 164 157 152 147 143 142 142 149 161 174 187 184 183 180 174 172 173 172 167 160 152 148 146 142 140
224 240 237 249 252 241 209 209 250 249 109 74 32 3 342 2 357 346 357 332 343 11 308 162 187 255 14 300 157 168 170 164 167 163 161 161 165 175 176 177 175 176 176 174 175 171 166 164 163 163 163 167 166 160 159 156 153 148 143 143 145 151 154 160 163 161 161 162 166 168 167 168 164 159 156 150 146 144 147 159 168 176 195 196 194 192 182 179 178 177 174 169 161 153 149 144 142
211 235 235 239 243 241 197 200 238 293 71 50 5 360 342 344 358 346 338 302 314 344 314 167 185 152 28 13 99 150 158 157 162 158 159 163 168 175 178 180 178 177 176 173 174 171 167 164 163 166 166 167 163 160 162 157 151 149 146 144 148 153 157 162 163 163 163 165 170 169 169 169 164 161 157 154 152 150 152 163 174 180 196 205 206 204 194 187 184 182 182 180 174 162 152 147 145
198 221 231 233 239 246 83 39 3 354 357 10 349 354 340 331 349 344 331 298 313 320 246 177 184 148 54 77 114 140 148 148 151 153 161 172 177 176 179 183 182 181 179 175 173 173 170 165 165 169 165 163 165 163 162 159 154 153 148 145 148 153 157 159 159 165 169 172 175 174 175 171 166 163 157 156 156 155 159 166 179 187 199 211 214 214 206 197 192 189 188 189 186 176 166 156 151
212 227 232 240 255 17 45 27 23 352 330 340 333 341 330 323 338 334 328 325 320 297 190 178 176 138 100 110 118 133 143 146 155 165 170 178 181 180 187 189 191 191 182 179 178 174 167 164 166 168 166 166 171 168 165 164 161 157 151 149 152 152 154 156 161 170 175 176 176 179 178 167 165 163 154 156 159 161 169 174 186 196 202 209 217 220 213 205 202 199 195 196 196 190 185 176 167
221 231 237 246 304 25 50 20 15 347 325 322 322 329 314 315 330 321 321 318 306 17 69 193 182 145 124 125 131 146 156 163 172 176 170 172 179 184 191 188 201 199 181 179 177 170 165 162 162 164 168 170 172 171 170 167 164 163 158 155 154 156 158 161 167 173 178 177 175 181 178 164 164 164 154 156 160 162 170 178 189 199 203 208 217 219 212 209 209 208 204 202 203 199 195 196 192
214 224 247 305 30 275 165 177 298 320 314 310 314 313 302 318 322 303 310 307 289 59 33 2 164 144 140 145 155 165 171 173 172 172 169 174 184 190 196 189 210 200 172 172 164 161 167 161 158 164 170 173 175 175 176 172 168 169 163 160 161 164 165 165 169 172 174 176 175 177 176 168 160 161 157 154 157 158 163 167 174 189 195 203 209 206 203 208 209 213 214 210 208 203 199 205 208
226 226 247 270 283 267 185 240 288 306 301 299 303 304 309 319 307 294 301 296 315 14 18 31 133 146 156 163 168 172 175 176 172 170 173 185 192 198 208 196 231 228 165 173 176 168 168 165 165 171 174 177 179 179 183 177 170 169 166 168 169 169 169 168 170 171 172 173 174 172 171 169 160 162 163 157 157 157 157 152 157 175 180 189 191 184 189 198 198 206 217 217 216 212 210 211 211
240 232 240 246 252 263 266 277 285 293 289 293 300 304 309 303 296 300 297 289 311 337 343 98 141 152 165 170 170 169 171 174 171 173 180 191 197 203 207 196 217 219 181 182 185 180 178 181 179 179 180 182 183 183 185 180 173 174 175 177 173 172 175 175 173 173 174 173 174 171 168 169 167 170 166 163 163 158 157 156 163 167 164 175 175 175 187 191 192 197 211 219 220 219 221 222 213
237 247 239 245 254 259 267 276 277 281 283 291 297 296 295 290 297 304 293 293 314 317 269 147 149 153 165 171 169 170 171 172 168 178 189 192 201 195 186 184 167 164 181 193 185 186 192 193 188 187 188 185 186 189 187 182 178 180 182 180 175 176 180 180 177 176 177 175 174 169 167 171 172 171 166 163 163 158 157 155 155 152 152 162 164 172 183 185 193 199 206 214 214 210 217 222 207
232 251 254 252 259 258 261 267 269 277 280 285 288 285 284 287 302 296 288 301 336 319 145 146 151 154 165 172 170 170 173 174 173 186 192 187 194 184 164 162 151 149 168 197 197 196 199 197 194 193 194 194 194 195 192 184 183 186 183 182 178 178 183 184 181 180 180 175 170 167 167 168 167 167 164 160 159 158 156 148 142 138 140 147 154 165 174 178 184 189 194 197 199 196 194 197 191
220 240 253 257 263 264 263 265 270 274 272 278 280 277 279 293 304 286 277 355 65 138 143 147 152 158 167 171 172 172 174 178 180 185 182 177 180 177 163 163 162 158 162 173 184 195 202 197 197 197 199 202 198 197 195 188 193 194 186 184 181 181 186 188 186 185 183 171 163 166 170 169 168 168 163 158 158 163 164 163 160 150 145 146 152 158 163 170 174 174 176 176 181 187 179 172 175
216 240 255 262 267 268 266 267 270 272 268 263 265 273 278 289 290 267 115 90 140 148 151 152 155 163 167 168 171 174 178 181 181 178 173 177 179 173 169 168 170 169 164 166 173 188 200 196 196 201 203 204 196 194 199 193 192 195 190 188 187 187 190 193 193 185 177 168 166 172 173 173 174 169 163 161 161 166 165 167 170 163 156 155 157 161 163 165 169 170 169 172 173 174 171 162 162
258 250 258 253 258 259 251 255 262 265 263 253 253 270 269 256 262 251 106 94 169 166 164 157 159 165 164 167 171 175 183 184 181 180 178 183 187 179 174 170 167 168 168 175 181 188 194 191 195 201 204 209 203 200 207 197 186 194 197 191 191 192 194 199 201 187 174 174 178 176 172 172 172 166 163 165 166 167 163 160 162 162 161 161 161 165 165 164 169 173 175 182 178 169 169 167 164
253 249 260 244 239 243 233 239 256 255 259 258 255 264 249 225 235 218 116 150 181 181 176 161 165 166 164 169 173 177 184 187 187 189 186 186 189 184 178 177 175 174 175 182 188 191 190 189 197 204 206 209 207 204 206 199 190 198 198 194 193 189 194 203 207 202 187 182 181 174 171 168 165 164 165 169 171 170 168 167 166 167 168 169 171 172 168 167 173 180 185 188 183 174 176 182 176
249 234 253 253 238 224 191 206 244 239 243 245 240 258 232 199 203 154 119 174 180 182 178 168 173 171 169 173 177 181 182 190 192 191 188 187 191 190 185 184 184 185 186 185 185 190 193 194 197 202 206 202 198 204 205 201 197 198 198 198 193 187 194 204 211 210 193 183 181 173 169 167 164 166 170 175 177 173 173 176 177 178 177 176 179 180 177 177 183 188 192 191 186 182 183 185 183
239 222 230 247 249 170 133 162 238 226 165 189 223 243 233 174 144 114 131 176 180 187 178 173 185 181 176 177 183 188 186 193 193 188 188 189 195 195 190 190 191 194 196 194 190 187 190 199 195 193 208 203 193 199 202 200 198 198 202 198 188 188 195 204 215 212 191 180 176 171 169 170 168 168 174 181 180 178 178 180 186 190 190 189 190 190 188 187 190 191 192 191 189 192 193 191 191
220 234 220 212 235 152 138 170 237 263 101 171 221 239 238 182 114 105 137 174 186 194 182 177 191 194 188 184 187 190 191 196 196 193 194 197 199 195 191 193 196 199 199 198 198 193 190 201 201 204 220 214 196 193 193 198 201 200 200 191 184 188 194 204 206 193 180 172 167 169 173 171 170 171 176 182 181 184 184 183 189 199 203 205 206 204 201 199 202 202 194 189 192 196 196 200 200
209 234 242 200 219 208 157 162 178 275 281 183 224 257 251 179 120 119 137 175 191 198 192 185 193 202 201 194 191 190 189 193 198 199 198 200 201 196 193 194 196 198 195 191 195 197 194 195 197 208 219 210 197 191 184 196 203 197 193 188 184 186 193 200 189 172 168 166 161 169 176 171 170 174 177 181 183 186 189 189 192 202 204 204 207 204 204 204 205 206 198 189 189 188 191 204 204
198 211 244 226 229 250 182 155 159 220 261 217 224 252 263 251 158 140 147 178 194 204 199 191 198 209 212 206 198 194 191 191 196 199 197 199 201 199 196 192 190 191 188 185 186 189 189 190 198 207 207 196 195 193 190 200 201 192 188 186 184 186 191 191 179 172 168 166 166 173 178 173 172 177 178 182 186 187 191 198 201 206 205 200 196 195 200 201 200 204 203 195 184 171 185 203 199
211 199 231 231 222 238 238 183 149 211 261 250 236 238 245 251 226 156 156 186 197 208 201 195 204 212 219 217 209 203 197 195 195 195 194 194 195 197 195 187 183 184 183 184 181 177 181 193 203 205 203 200 202 203 204 201 195 190 184 180 182 187 192 186 176 176 174 171 173 177 179 176 177 183 185 189 193 193 198 205 207 208 205 202 195 192 194 192 194 201 205 201 188 179 189 193 185
253 208 243 253 230 225 225 224 261 281 273 259 248 247 239 240 228 152 149 186 201 211 204 201 206 210 219 222 218 212 204 199 195 193 193 193 189 188 189 186 185 184 184 187 185 181 187 193 192 195 201 203 202 198 196 192 190 189 181 178 183 189 195 188 179 180 179 175 176 179 180 180 184 188 191 198 201 201 209 211 209 207 205 204 196 191 190 185 184 192 203 204 197 192 190 188 182
266 248 249 254 252 245 193 206 248 267 275 263 250 252 247 245 239 167 148 186 207 215 210 208 210 209 215 221 222 218 210 201 197 195 193 190 188 189 190 188 187 187 187 191 191 192 200 193 186 195 203 201 197 192 188 188 190 189 183 184 186 190 194 188 183 184 181 178 178 180 183 184 189 193 194 202 204 204 209 209 208 207 206 206 200 194 190 184 183 190 197 194 196 196 179 178 186
244 250 250 248 249 251 191 218 257 247 261 262 251 251 246 245 244 197 164 208 224 224 218 214 215 212 212 217 221 221 214 202 200 198 190 185 185 190 193 191 188 188 188 192 194 193 195 191 191 200 202 200 199 194 190 190 192 195 192 188 185 188 190 185 185 185 182 182 181 181 185 187 193 198 201 205 204 202 205 206 207 208 208 206 204 203 195 189 188 194 196 183 186 196 178 177 181
239 240 250 252 252 262 226 222 239 220 240 257 253 255 250 245 245 226 214 238 239 232 229 221 219 217 215 216 217 217 212 205 205 197 184 182 185 186 190 193 191 189 188 190 196 200 197 192 194 201 203 203 201 195 193 194 195 197 193 186 184 187 184 180 182 184 183 184 185 187 190 194 199 203 208 208 202 200 202 202 203 205 205 198 197 202 198 197 195 191 192 186 186 190 181 182 180
233 234 245 243 236 256 236 193 183 209 252 270 275 270 260 250 247 243 238 239 233 227 230 226 224 223 220 220 219 214 209 206 204 195 186 184 187 188 188 191 195 194 192 192 198 202 202 200 197 198 204 204 201 198 194 193 194 192 185 182 186 184 179 179 182 184 184 185 190 194 197 200 202 201 204 203 199 201 200 197 196 198 199 194 191 192 190 197 200 184 183 193 193 187 180 183 183
228 232 243 252 248 251 263 248 225 251 249 248 261 265 252 238 236 236 221 207 212 215 220 223 224 225 224 223 222 218 211 205 201 196 195 189 186 194 194 194 199 199 198 202 207 204 203 208 202 197 201 202 201 200 193 189 188 185 179 178 181 179 178 181 183 184 187 190 194 198 201 204 203 199 199 198 196 201 200 192 190 191 191 189 183 181 182 186 189 179 182 194 191 183 183 187 186
236 225 230 250 261 256 261 261 254 264 244 210 219 247 244 222 224 231 208 193 206 205 210 220 221 222 223 220 219 217 209 202 197 193 197 195 193 200 201 203 207 209 212 209 207 206 204 207 202 197 198 198 199 197 188 184 184 182 179 177 177 178 179 182 183 185 189 192 195 198 201 205 204 201 200 198 197 202 203 194 188 185 186 187 180 179 186 184 180 182 187 190 186 182 183 185 186
250 216 213 238 252 252 253 249 230 251 253 167 196 247 258 219 218 225 212 210 213 201 207 226 223 220 220 217 213 210 203 195 188 189 194 193 198 205 206 207 209 212 216 205 195 199 199 198 199 199 196 192 196 190 178 182 186 185 184 180 179 179 180 182 183 185 188 191 193 196 198 197 195 195 197 197 194 197 201 197 191 185 183 187 180 177 183 183 182 185 186 183 183 186 180 181 188
253 139 215 242 245 241 238 232 225 244 272 171 205 241 264 253 235 215 202 213 215 202 214 229 223 217 214 212 207 202 201 191 179 182 188 186 193 205 209 209 211 213 212 199 190 193 192 192 196 198 195 192 193 186 180 189 190 186 186 182 181 182 180 183 184 182 185 192 194 191 189 186 184 185 189 191 190 191 193 189 184 180 176 176 173 170 173 175 181 186 185 182 183 187 184 188 194
250 114 245 264 255 241 229 222 225 235 258 231 215 220 245 256 233 191 191 211 196 175 210 212 210 209 203 201 196 191 191 185 176 172 174 181 185 195 204 209 212 208 201 194 192 194 190 192 195 198 203 201 192 185 192 197 189 184 186 183 181 181 179 182 184 178 180 190 190 181 178 180 180 181 184 184 186 186 185 181 176 174 175 179 180 182 179 175 182 188 186 181 183 187 184 194 203
254 193 245 262 251 237 222 222 225 210 237 248 216 200 233 259 228 190 190 203 163 114 152 147 178 191 188 186 183 177 168 164 171 167 169 184 192 198 202 200 193 180 180 199 204 196 192 195 198 204 212 208 190 188 195 192 185 186 189 187 184 184 185 187 185 180 181 184 181 175 176 179 178 180 182 182 182 181 180 181 181 182 187 191 190 192 193 187 188 194 192 184 182 184 183 196 209
240 229 229 219 208 209 210 226 232 214 230 242 214 197 232 258 236 128 106 133 99 355 151 126 157 155 143 151 159 163 160 156 163 167 172 186 200 207 199 185 184 188 210 234 216 190 200 203 196 205 218 213 195 195 193 187 188 189 189 190 189 188 188 189 186 184 181 175 174 176 178 178 178 181 182 179 180 182 183 185 189 193 194 195 194 195 198 195 196 197 197 193 181 177 184 194 202
225 233 226 207 190 190 205 207 212 233 236 225 200 201 232 246 226 76 79 87 49 343 329 152 157 139 125 128 138 152 164 166 168 172 180 187 197 205 196 182 193 211 219 223 202 183 194 193 182 202 210 202 195 195 188 185 188 187 186 188 187 187 187 187 185 183 178 172 173 177 178 178 180 183 182 183 185 184 183 185 188 192 195 194 195 196 194 193 198 198 195 195 183 176 181 183 190
218 228 224 218 200 190 212 207 207 235 224 151 159 205 235 239 128 72 67 60 30 10 2 220 158 135 137 138 133 142 161 173 177 180 186 190 190 192 188 191 213 220 205 195 181 175 182 194 209 211 202 192 188 188 184 184 184 182 183 183 181 185 190 191 186 180 178 174 174 178 181 184 187 188 187 187 185 179 175 178 181 187 193 195 196 195 189 188 193 194 191 187 179 175 167 161 175
210 217 217 222 214 201 215 214 216 230 209 146 150 200 234 224 102 58 51 50 33 38 50 157 145 135 152 153 142 143 150 163 171 174 182 186 188 187 184 193 213 212 189 178 172 169 183 209 219 200 189 187 188 186 183 183 182 180 182 182 180 182 188 191 185 181 181 177 175 180 184 185 187 187 185 183 177 171 170 177 183 188 194 196 195 188 184 187 183 173 173 173 169 169 154 139 147
206 217 224 229 229 222 227 230 231 231 205 153 158 194 238 225 121 58 56 61 53 60 69 89 112 122 141 148 148 152 154 161 167 170 178 181 185 189 187 186 196 193 177 175 177 179 192 207 202 183 182 186 188 186 183 181 181 180 181 180 178 175 180 184 182 184 185 177 174 178 177 176 177 177 177 175 173 172 176 184 186 190 193 190 186 180 175 177 169 150 149 151 148 152 143 130 130
197 211 229 233 234 232 235 267 297 264 231 173 175 217 278 149 127 88 75 70 71 75 77 86 104 115 129 138 148 156 157 164 172 175 179 177 176 185 187 178 178 179 174 174 180 188 197 202 195 184 184 185 185 182 182 182 180 180 180 181 179 176 177 180 180 182 181 175 172 173 171 170 172 177 176 174 175 177 181 184 184 188 188 181 178 176 168 167 165 152 147 145 140 145 147 142 138
182 205 223 220 239 250 238 184 100 285 256 212 185 224 170 137 149 114 93 77 78 78 77 88 108 122 139 151 153 157 155 154 162 168 174 178 176 178 184 180 176 177 177 177 179 184 195 203 198 183 181 186 185 180 182 183 180 181 183 183 181 178 177 182 185 182 178 174 171 169 172 174 177 180 176 174 176 178 179 178 176 179 180 176 173 170 166 168 165 153 149 148 148 154 159 161 160
199 208 215 189 213 251 247 228 191 213 242 216 197 231 205 174 181 135 125 93 81 83 85 94 107 115 126 139 143 146 150 151 152 155 163 173 174 170 172 182 184 177 172 174 178 181 190 197 194 182 178 183 185 181 184 185 182 183 182 178 175 174 174 178 181 179 176 176 173 171 175 179 181 178 174 173 174 175 176 174 170 169 171 174 173 168 167 166 160 154 153 151 155 158 156 170 175
230 259 253 205 210 223 216 226 226 221 235 224 204 223 217 196 187 162 154 116 99 101 100 104 113 110 107 115 131 138 145 150 150 151 160 163 163 160 160 174 181 172 165 168 177 185 191 190 187 182 178 180 184 184 184 184 180 177 177 176 173 170 170 172 173 174 175 176 174 173 176 178 179 175 172 171 171 173 175 171 169 165 162 169 173 171 168 161 153 154 152 150 157 151 134 148 159
227 260 254 220 218 234 217 216 229 230 234 228 208 212 211 113 116 139 134 123 128 128 116 113 118 118 114 116 129 141 149 149 141 141 149 149 152 153 152 165 176 174 172 177 181 183 184 185 184 183 181 182 184 185 183 181 177 175 177 177 174 171 170 170 171 172 173 174 174 174 173 174 175 173 171 170 170 172 172 170 170 165 159 159 163 165 163 156 150 148 144 144 146 135 122 130 134
208 221 222 209 204 228 233 224 236 252 247 231 223 216 157 64 65 105 113 118 131 125 117 116 116 117 119 123 129 137 144 141 130 132 149 155 163 157 148 162 179 180 178 182 185 180 178 186 190 187 186 186 186 185 184 182 180 179 179 178 176 175 172 169 168 169 170 173 175 172 171 171 170 171 170 168 169 169 168 169 169 164 160 156 155 157 154 150 149 146 142 139 133 126 123 127 127
225 222 219 215 208 211 224 217 214 237 256 254 251 229 103 69 37 88 112 120 117 112 111 114 120 117 110 118 127 132 137 137 128 132 147 151 149 116 140 177 204 208 196 171 164 168 178 192 197 191 188 189 189 186 185 186 186 183 180 179 179 179 175 171 168 168 169 170 172 171 172 171 169 170 170 168 169 168 166 169 168 162 159 155 154 155 150 148 151 150 145 138 131 129 128 128 129